Weather History for Middletown, OH

Change the Weather History Date:

Sunday, September 22, 2013

  Actual Average (KDAY) Record (KDAY)
Temperature  
Mean Temperature 57 °F 63 °F  
Max Temperature 67 °F 73 °F 95 °F (1895)
Min Temperature 47 °F 52 °F 33 °F (1897)
Degree Days  
Heating Degree Days 8 4  
Month to date heating degree days 44  
Since 1 July heating degree days 46  
Cooling Degree Days 0 2  
Month to date cooling degree days 86  
Year to date cooling degree days 868  
Growing Degree Days 7 (Base 50)    
Moisture  
Dew Point 43 °F    
Average Humidity 64    
Maximum Humidity 87    
Minimum Humidity 32    
Precipitation  
Precipitation 0.00 in 0.12 in 1.19 in (1912)
Month to date precipitation 2.45  
Year to date precipitation 30.76  
Snow  
Snow 0.00 in 0.00 in - ()
Month to date snowfall 0.0  
Since 1 July snowfall 0.0  
Since 1 September snowfall 0.0  
Snow Depth -    
Sea Level Pressure  
Sea Level Pressure 29.98 in    
Wind  
Wind Speed 3 mph (NNE)    
Max Wind Speed 13 mph    
Max Gust Speed 17 mph    
Visibility 10 miles    
Events      
T = Trace of Precipitation, MM = Missing Value Source: NWS Daily Summary

Daily Weather History Graph

Daily Weather History Graph

Search for Another Location

Airport:

Trip Planner

Search our weather history database for the weather conditions in past years. The results will help you decide how hot, cold, wet, or windy it might be!

Date:

Astronomy

Sep. 22, 2013 Rise Set
Actual Time 7:25 AM EDT 7:34 PM EDT
Civil Twilight 6:58 AM EDT 8:01 PM EDT
Nautical Twilight 6:27 AM EDT 8:32 PM EDT
Astronomical Twilight 5:55 AM EDT 9:04 PM EDT
Moon 9:24 PM EDT (9/22) 10:43 AM EDT (9/22)
Length of Visible Light 13h 02m
Length of Day
12h 08m
Waning Gibbous, 89% of the Moon is Illuminated
Sep 22
Waning Gibbous
Sep 26
Last Quarter
Oct 4
New
Oct 11
First Quarter
Oct 18
Full

Hourly Weather History & Observations

Time (EDT) Temp. Dew Point Humidity Pressure Visibility Wind Dir Wind Speed Gust Speed Precip Events Conditions
12:15 AM 55.4 °F 45.5 °F 69% 29.91 in 10.0 mi NE 4.6 mph - N/A   Clear
12:35 AM 55.4 °F 46.2 °F 71% 29.92 in 10.0 mi NE 5.8 mph - N/A   Clear
12:55 AM 54.7 °F 45.9 °F 72% 29.92 in 10.0 mi NE 3.5 mph - N/A   Clear
1:15 AM 53.1 °F 44.6 °F 73% 29.92 in 10.0 mi Calm Calm - N/A   Clear
1:35 AM 52.7 °F 44.6 °F 74% 29.93 in 10.0 mi Calm Calm - N/A   Clear
1:55 AM 52.7 °F 45.7 °F 77% 29.93 in 10.0 mi Calm Calm - N/A   Clear
2:15 AM 52.7 °F 46.4 °F 79% 29.93 in 10.0 mi Calm Calm - N/A   Clear
2:35 AM 52.7 °F 45.9 °F 78% 29.93 in 10.0 mi Calm Calm - N/A   Clear
2:55 AM 52.7 °F 46.2 °F 79% 29.93 in 10.0 mi Calm Calm - N/A   Clear
3:15 AM 52.7 °F 46.4 °F 79% 29.93 in 10.0 mi Calm Calm - N/A   Clear
3:35 AM 50.9 °F 45.1 °F 81% 29.93 in 10.0 mi Calm Calm - N/A   Clear
3:55 AM 51.6 °F 46.0 °F 81% 29.93 in 10.0 mi Calm Calm - N/A   Clear
4:15 AM 52.7 °F 46.2 °F 79% 29.93 in 10.0 mi Calm Calm - N/A   Clear
4:35 AM 50.7 °F 44.8 °F 80% 29.93 in 10.0 mi Calm Calm - N/A   Clear
4:55 AM 49.8 °F 44.8 °F 83% 29.94 in 10.0 mi Calm Calm - N/A   Clear
5:15 AM 50.2 °F 45.0 °F 82% 29.94 in 10.0 mi Calm Calm - N/A   Clear
5:35 AM 47.7 °F 43.3 °F 85% 29.95 in 10.0 mi Calm Calm - N/A   Clear
5:55 AM 47.8 °F 43.7 °F 86% 29.96 in 10.0 mi Calm Calm - N/A   Clear
6:15 AM 47.8 °F 43.7 °F 86% 29.96 in 10.0 mi Calm Calm - N/A   Clear
6:35 AM 47.7 °F 43.7 °F 86% 29.96 in 10.0 mi Calm Calm - N/A   Clear
6:55 AM 47.7 °F 43.7 °F 86% 29.97 in 10.0 mi Calm Calm - N/A   Clear
7:15 AM 47.7 °F 43.7 °F 86% 29.97 in 10.0 mi Calm Calm - N/A   Clear
7:35 AM 47.7 °F 43.9 °F 87% 29.98 in 10.0 mi Calm Calm - N/A   Clear
7:55 AM 47.7 °F 43.9 °F 87% 29.98 in 10.0 mi Calm Calm - N/A   Clear
8:15 AM 47.7 °F 43.9 °F 87% 29.98 in 10.0 mi Calm Calm - N/A   Clear
8:35 AM 51.1 °F 46.6 °F 85% 29.99 in 10.0 mi Calm Calm - N/A   Clear
8:55 AM 52.7 °F 47.1 °F 81% 30.00 in 10.0 mi North 4.6 mph - N/A   Clear
9:15 AM 52.7 °F 45.9 °F 78% 30.01 in 10.0 mi NNW 8.1 mph - N/A   Clear
9:35 AM 55.2 °F 47.3 °F 75% 30.01 in 10.0 mi NNE 4.6 mph - N/A   Clear
9:55 AM 55.4 °F 46.0 °F 71% 30.01 in 10.0 mi NE 8.1 mph - N/A   Clear
10:15 AM 57.7 °F 45.7 °F 64% 30.02 in 10.0 mi NNE 6.9 mph - N/A   Clear
10:35 AM 57.7 °F 44.1 °F 60% 30.02 in 10.0 mi NNE 11.5 mph - N/A   Clear
10:55 AM 58.1 °F 42.3 °F 56% 30.03 in 10.0 mi NNE 6.9 mph - N/A   Scattered Clouds
11:15 AM 59.0 °F 41.5 °F 52% 30.02 in 10.0 mi NNE 10.4 mph - N/A   Mostly Cloudy
11:35 AM 60.1 °F 41.5 °F 50% 30.02 in 10.0 mi North 11.5 mph - N/A   Mostly Cloudy
11:55 AM 60.3 °F 40.8 °F 49% 30.02 in 10.0 mi NE 11.5 mph - N/A   Scattered Clouds
12:15 PM 61.0 °F 40.6 °F 47% 30.02 in 10.0 mi NNE 11.5 mph - N/A   Mostly Cloudy
12:35 PM 61.7 °F 39.9 °F 45% 30.02 in 10.0 mi NNE 12.7 mph 16.1 mph N/A   Scattered Clouds
12:55 PM 62.4 °F 39.6 °F 43% 30.01 in 10.0 mi NNE 12.7 mph 16.1 mph N/A   Clear
1:15 PM 62.6 °F 38.7 °F 41% 30.02 in 10.0 mi North 6.9 mph - N/A   Clear
1:35 PM 62.6 °F 37.4 °F 39% 30.01 in 10.0 mi NNE 6.9 mph 10.4 mph N/A   Clear
1:55 PM 65.7 °F 39.7 °F 39% 30.00 in 10.0 mi NNE 5.8 mph - N/A   Clear
2:15 PM 67.5 °F 41.0 °F 38% 30.00 in 10.0 mi North 6.9 mph 17.3 mph N/A   Clear
2:35 PM 67.6 °F 40.5 °F 37% 30.00 in 10.0 mi NNW 5.8 mph - N/A   Clear
2:55 PM 67.6 °F 39.9 °F 36% 29.99 in 10.0 mi NNW 8.1 mph - N/A   Clear
3:15 PM 67.6 °F 39.6 °F 36% 29.99 in 10.0 mi North 9.2 mph - N/A   Clear
3:35 PM 67.6 °F 37.9 °F 34% 29.99 in 10.0 mi NNW 9.2 mph - N/A   Clear
3:55 PM 67.6 °F 37.0 °F 32% 29.98 in 10.0 mi North 6.9 mph 16.1 mph N/A   Clear
4:15 PM 67.6 °F 37.0 °F 32% 29.98 in 10.0 mi North 6.9 mph - N/A   Clear
4:35 PM 67.6 °F 37.6 °F 33% 29.98 in 10.0 mi NE 8.1 mph - N/A   Clear
4:55 PM 67.6 °F 37.6 °F 33% 29.98 in 10.0 mi NE 8.1 mph - N/A   Clear
5:15 PM 67.6 °F 38.5 °F 34% 29.97 in 10.0 mi ENE 6.9 mph - N/A   Clear
5:35 PM 67.6 °F 37.4 °F 33% 29.98 in 10.0 mi NE 4.6 mph - N/A   Clear
5:55 PM 67.6 °F 38.3 °F 34% 29.98 in 10.0 mi NE 4.6 mph - N/A   Clear
6:15 PM 67.6 °F 39.2 °F 35% 29.99 in 10.0 mi NNE 5.8 mph - N/A   Clear
6:35 PM 66.7 °F 39.6 °F 37% 29.99 in 10.0 mi NNE 8.1 mph - N/A   Clear
6:55 PM 63.5 °F 38.5 °F 40% 29.99 in 10.0 mi NNE 4.6 mph - N/A   Clear
7:15 PM 61.0 °F 39.0 °F 44% 30.00 in 10.0 mi NNE 4.6 mph - N/A   Clear
7:35 PM 59.5 °F 40.1 °F 49% 30.00 in 10.0 mi North 3.5 mph - N/A   Clear
7:55 PM 57.7 °F 45.5 °F 64% 30.00 in 10.0 mi North 3.5 mph - N/A   Clear
8:15 PM 55.4 °F 45.5 °F 69% 30.01 in 10.0 mi Calm Calm - N/A   Clear
8:35 PM 55.4 °F 45.7 °F 70% 30.01 in 10.0 mi Calm Calm - N/A   Clear
8:55 PM 52.7 °F 45.1 °F 75% 30.02 in 10.0 mi Calm Calm - N/A   Clear
9:15 PM 52.7 °F 46.8 °F 80% 30.02 in 10.0 mi Calm Calm - N/A   Clear
9:35 PM 52.7 °F 46.8 °F 80% 30.02 in 10.0 mi North 3.5 mph - N/A   Clear
9:55 PM 50.2 °F 45.1 °F 83% 30.03 in 10.0 mi Calm Calm - N/A   Clear
10:15 PM 50.2 °F 45.5 °F 84% 30.03 in 10.0 mi Calm Calm - N/A   Clear
10:35 PM 49.1 °F 44.2 °F 83% 30.03 in 10.0 mi Calm Calm - N/A   Clear
10:55 PM 48.7 °F 44.1 °F 84% 30.03 in 10.0 mi Calm Calm - N/A   Clear
11:15 PM 47.7 °F 43.3 °F 85% 30.04 in 10.0 mi Calm Calm - N/A   Clear
11:35 PM 47.7 °F 43.3 °F 85% 30.04 in 10.0 mi North 3.5 mph - N/A   Clear
11:55 PM 47.7 °F 43.3 °F 85% 30.04 in 10.0 mi North 3.5 mph - N/A   Clear